User: anonymous   Login
Location: Edmonton
(53.5500°N, 113.5000°W)
Time: 19:27:28
(UTC-07:00)
Language:

CZ-4C R/B - Orbit

View from above orbital plane
View from above orbital plane
View from above satellite
View from above satellite

Ground track
Ground track

The orbit data is extracted from the following two-line orbital elements,

1 36416U 10009D   16040.59605374 -.00000039 +00000-0 +43640-4 0  9994
2 36416 063.4441 147.0930 0338661 357.8212 002.1332 13.69490705296612
Epoch (UTC): 09 February 2016 14:18:19
Eccentricity: 0.0338661
inclination: 63.4441°
perigee height: 751 km
apogee height: 1251 km
right ascension of ascending node: 147.0930°
argument of perigee: 357.8212°
revolutions per day: 13.69490705
mean anomaly at epoch: 2.1332°
orbit number at epoch: 29661

The dashed part of the orbit path shows where the satellite is in the earth's shadow,  

DLR